Home > Weather > Kwajalein > Past weeks

Flag for Marshall Islands Weather for the Past 2 Weeks in Kwajalein, Marshall Islands

Now
80 °F

Passing clouds.


Feels Like: 84 °F
Forecast: 80 / 88 °F
Wind: 18 mph from Northeast

Location: Kwajalein / Bucholz

Current Time: Feb 15, 2016 at 1:11:58 AM

Latest Report: Feb 15, 2016 at 12:40 AM


Visibility: 10 mi

Pressure: 29.86 "Hg

Humidity: 73%

Dew point: 71 °F

Location of KwajaleinLocation

Historic Weather in Kwajalein — Graph

°F

Kwajalein Temperature Yesterday

Maximum temperature yesterday: 85 °F (at 2:20 PM)
Minimum temperature yesterday: 79 °F (at 5:40 AM)
Average temperature yesterday: 81 °F

High & Low Weather Summary for the Past Weeks

 TemperatureHumidityPressure
High88 °F (Feb 11, 2:20 PM)80% (Feb 5, 4:40 AM)29.96 "Hg (Feb 5, 4:40 AM)
Low77 °F (Feb 9, 6:00 AM)45% (Feb 2, 3:20 PM)29.73 "Hg (Feb 9, 4:00 PM)
Average82 °F66%29.85 "Hg
* Reported Midnight between Jan 30 and Jan 31 — Midnight between Feb 14 and Feb 15, Kwajalein, Weather by CustomWeather, © 2016

Note: Actual official high and low records may vary slightly from our data, if they occured in-between our weather recording intervals... More about our weather records

Advertising

Kwajalein Weather History for the Previous 24 Hours

 ConditionsComfort  
Time TempWeatherWind HumidityBarometerVisibility
12:00 AM
Mon, Feb 15
80 °FMostly cloudy.20 mph74%29.86 "Hg10 mi
11:20 PM
Sun, Feb 14
80 °FOvercast.18 mph74%29.87 "Hg10 mi
11:00 PM80 °FPartly cloudy.18 mph74%29.87 "Hg10 mi
10:40 PM80 °FPartly cloudy.20 mph74%29.87 "Hg10 mi
10:20 PM80 °FPartly cloudy.16 mph73%29.87 "Hg10 mi
10:00 PM80 °FPartly cloudy.17 mph73%29.87 "Hg10 mi
9:40 PM80 °FMostly cloudy.21 mph73%29.87 "Hg10 mi
9:20 PM80 °FMostly cloudy.20 mph73%29.87 "Hg10 mi
9:00 PM80 °FOvercast.18 mph73%29.87 "Hg10 mi
8:40 PM80 °FPartly cloudy.18 mph73%29.86 "Hg10 mi
8:20 PM80 °FPassing clouds.20 mph73%29.85 "Hg10 mi
7:40 PM80 °FPassing clouds.17 mph72%29.84 "Hg10 mi
7:20 PM80 °FPassing clouds.20 mph72%29.83 "Hg10 mi
7:00 PM80 °FClear.17 mph70%29.82 "Hg10 mi
6:40 PM81 °FBroken clouds.17 mph69%29.81 "Hg10 mi
6:20 PM81 °FMore clouds than sun.17 mph68%29.80 "Hg10 mi
6:00 PM81 °FBroken clouds.18 mph67%29.80 "Hg10 mi
5:40 PM82 °FScattered clouds.17 mph66%29.79 "Hg10 mi
5:20 PM82 °FPartly sunny.18 mph64%29.79 "Hg10 mi
5:00 PM83 °FScattered clouds.17 mph62%29.78 "Hg10 mi
4:20 PM84 °FSunny.18 mph59%29.78 "Hg10 mi
4:00 PM85 °FSunny.18 mph58%29.78 "Hg10 mi
3:20 PM85 °FSunny.16 mph58%29.78 "Hg10 mi
3:00 PM85 °FSunny.18 mph58%29.79 "Hg10 mi
2:40 PM85 °FSunny.17 mph58%29.80 "Hg10 mi
2:20 PM85 °FSunny.18 mph58%29.81 "Hg10 mi
1:40 PM85 °FScattered clouds.18 mph58%29.81 "Hg10 mi
1:20 PM85 °FScattered clouds.20 mph58%29.82 "Hg10 mi
1:00 PM85 °FBroken clouds.20 mph59%29.83 "Hg10 mi
12:40 PM85 °FBroken clouds.18 mph59%29.84 "Hg10 mi
12:20 PM85 °FScattered clouds.20 mph60%29.85 "Hg10 mi
12:00 PM85 °FScattered clouds.17 mph60%29.86 "Hg10 mi
11:20 AM84 °FPartly sunny.18 mph59%29.88 "Hg10 mi
11:00 AM84 °FBroken clouds.20 mph60%29.88 "Hg10 mi
10:20 AM83 °FScattered clouds.18 mph61%29.88 "Hg10 mi
10:00 AM82 °FScattered clouds.18 mph62%29.88 "Hg10 mi
9:40 AM82 °FBroken clouds.20 mph63%29.88 "Hg10 mi
9:00 AM80 °FBroken clouds.17 mph66%29.88 "Hg10 mi
8:40 AM80 °FPartly sunny.17 mph67%29.88 "Hg10 mi
8:20 AM80 °FPartly sunny.20 mph67%29.87 "Hg10 mi
8:00 AM79 °FScattered clouds.21 mph68%29.86 "Hg10 mi
7:20 AM79 °FScattered clouds.20 mph68%29.84 "Hg10 mi
7:00 AM79 °FPassing clouds.20 mph68%29.84 "Hg10 mi
6:20 AM79 °FPassing clouds.21 mph69%29.83 "Hg10 mi
6:00 AM79 °FPassing clouds.21 mph69%29.82 "Hg10 mi
5:40 AM79 °FPassing clouds.20 mph70%29.82 "Hg10 mi
5:20 AM79 °FPassing clouds.21 mph69%29.82 "Hg10 mi
5:00 AM79 °FPartly cloudy.20 mph70%29.82 "Hg10 mi
4:40 AM79 °FPassing clouds.20 mph70%29.81 "Hg10 mi
4:20 AM79 °FPassing clouds.21 mph70%29.81 "Hg10 mi
4:00 AM79 °FPartly cloudy.17 mph70%29.81 "Hg10 mi
3:20 AM79 °FPassing clouds.22 mph69%29.82 "Hg10 mi
3:00 AM79 °FPartly cloudy.21 mph68%29.83 "Hg10 mi
2:20 AM79 °FPassing clouds.18 mph68%29.83 "Hg10 mi
2:00 AM79 °FPassing clouds.21 mph69%29.84 "Hg10 mi
1:40 AM80 °FClear.17 mph68%29.85 "Hg10 mi
1:20 AM80 °FPassing clouds.21 mph69%29.85 "Hg10 mi
1:00 AM80 °FPassing clouds.18 mph68%29.86 "Hg10 mi
Weather by CustomWeather, © 2016

See weather overviewHow to use our weather pages